AAL956 KMIA-MWCR

Flight info

Callsign AAL956
Flight time 1h 8m
Altitude 35000
Route MAYNR3 FUNDI UM335 ALVEK UM328 UCL/N0449F360 DCT LACET DCT ALONA DCT MOBIX DCT SASER
Aircraft A319/M-SDE3FGHIRWY/LB1

Departure

Time 2026-05-07 18:37
Airport Miami International Airport (KMIA)

Arrival

Time 2026-05-07 19:45
Airport Owen Roberts International Airport (MWCR)
Time Latitude Longitude Altitude Speed Heading
2026-05-07 18:05 25.79821 -80.28368 20 ft 0 kts 176°
2026-05-07 18:05 25.79822 -80.28368 20 ft 0 kts 176°
2026-05-07 18:28 25.79824 -80.28368 20 ft 2 kts 176°
2026-05-07 18:29 25.79850 -80.28370 23 ft 4 kts 182°
2026-05-07 18:29 25.79875 -80.28363 21 ft 4 kts 219°
2026-05-07 18:29 25.79887 -80.28344 19 ft 2 kts 266°
2026-05-07 18:29 25.79887 -80.28338 19 ft 1 kts 266°
2026-05-07 18:31 25.79887 -80.28345 19 ft 3 kts 266°
2026-05-07 18:31 25.79885 -80.28389 21 ft 8 kts 270°
2026-05-07 18:32 25.79920 -80.28434 20 ft 9 kts 341°
2026-05-07 18:32 25.79948 -80.28495 21 ft 9 kts 275°
2026-05-07 18:32 25.79994 -80.28529 23 ft 10 kts 355°
2026-05-07 18:32 25.80024 -80.28583 23 ft 8 kts 274°
2026-05-07 18:33 25.80023 -80.28641 25 ft 7 kts 267°
2026-05-07 18:33 25.80021 -80.28690 28 ft 7 kts 267°
2026-05-07 18:33 25.80018 -80.28752 27 ft 8 kts 267°
2026-05-07 18:33 25.80015 -80.28824 26 ft 11 kts 267°
2026-05-07 18:34 25.80011 -80.28917 25 ft 14 kts 267°
2026-05-07 18:34 25.80006 -80.29029 26 ft 15 kts 268°
2026-05-07 18:34 25.80002 -80.29147 26 ft 15 kts 267°
2026-05-07 18:34 25.79997 -80.29271 25 ft 17 kts 267°
2026-05-07 18:35 25.79991 -80.29419 19 ft 21 kts 268°
2026-05-07 18:35 25.79984 -80.29592 18 ft 23 kts 267°
2026-05-07 18:35 25.79976 -80.29761 18 ft 21 kts 267°
2026-05-07 18:35 25.79970 -80.29923 15 ft 19 kts 274°
2026-05-07 18:36 25.80004 -80.30066 17 ft 16 kts 286°
2026-05-07 18:36 25.80052 -80.30120 19 ft 10 kts 18°
2026-05-07 18:36 25.80074 -80.30040 17 ft 13 kts 87°
2026-05-07 18:36 25.80083 -80.29822 17 ft 59 kts 87°
2026-05-07 18:37 25.80113 -80.29115 25 ft 121 kts 87°
2026-05-07 18:37 25.80158 -80.27999 104 ft 160 kts 87°
2026-05-07 18:37 25.80212 -80.26765 712 ft 161 kts 90°
2026-05-07 18:37 25.79968 -80.25571 1266 ft 160 kts 120°
2026-05-07 18:38 25.79244 -80.24638 1838 ft 163 kts 139°
2026-05-07 18:38 25.78662 -80.24059 2080 ft 177 kts 140°
2026-05-07 18:38 25.77680 -80.23098 2413 ft 200 kts 140°
2026-05-07 18:38 25.76572 -80.22018 2801 ft 224 kts 140°
2026-05-07 18:39 25.75338 -80.20817 3285 ft 248 kts 140°
2026-05-07 18:39 25.73910 -80.19606 3839 ft 267 kts 156°
2026-05-07 18:39 25.72092 -80.19160 4601 ft 273 kts 178°
2026-05-07 18:39 25.70179 -80.19068 4900 ft 275 kts 180°
2026-05-07 18:40 25.68253 -80.19002 5507 ft 278 kts 181°
2026-05-07 18:40 25.66325 -80.19171 6433 ft 280 kts 188°
2026-05-07 18:40 25.64379 -80.19450 7239 ft 284 kts 187°
2026-05-07 18:40 25.62418 -80.19812 8048 ft 288 kts 195°
2026-05-07 18:41 25.60551 -80.20670 8819 ft 295 kts 208°
2026-05-07 18:41 25.58756 -80.21813 9604 ft 299 kts 208°
2026-05-07 18:41 25.56929 -80.22972 10256 ft 310 kts 208°
2026-05-07 18:41 25.54988 -80.24198 10497 ft 333 kts 209°
2026-05-07 18:42 25.52933 -80.25497 10989 ft 345 kts 209°
2026-05-07 18:42 25.50838 -80.26822 11689 ft 349 kts 209°
2026-05-07 18:42 25.48719 -80.28160 12398 ft 353 kts 209°
2026-05-07 18:42 25.46577 -80.29513 13131 ft 356 kts 210°
2026-05-07 18:43 25.44419 -80.30876 13862 ft 359 kts 210°
2026-05-07 18:43 25.42238 -80.32250 14487 ft 362 kts 210°
2026-05-07 18:43 25.40036 -80.33636 15129 ft 366 kts 210°
2026-05-07 18:43 25.37812 -80.35036 15770 ft 370 kts 211°
2026-05-07 18:44 25.35568 -80.36452 16395 ft 373 kts 211°
2026-05-07 18:44 25.33305 -80.37878 17032 ft 376 kts 211°
2026-05-07 18:44 25.31017 -80.39317 17644 ft 380 kts 211°
2026-05-07 18:44 25.28702 -80.40768 18249 ft 385 kts 211°
2026-05-07 18:45 25.26364 -80.42235 18786 ft 388 kts 211°
2026-05-07 18:45 25.23987 -80.43678 19344 ft 392 kts 207°
2026-05-07 18:45 25.21422 -80.44732 19907 ft 396 kts 198°
2026-05-07 18:45 25.18774 -80.45597 20480 ft 398 kts 198°
2026-05-07 18:46 25.16112 -80.46467 21040 ft 400 kts 199°
2026-05-07 18:46 25.13430 -80.47345 21597 ft 403 kts 199°
2026-05-07 18:46 25.10735 -80.48227 22155 ft 406 kts 199°
2026-05-07 18:46 25.08020 -80.49117 22710 ft 408 kts 199°
2026-05-07 18:47 25.05289 -80.50008 23253 ft 411 kts 199°
2026-05-07 18:47 25.02539 -80.50903 23756 ft 413 kts 199°
2026-05-07 18:47 24.99770 -80.51805 24174 ft 416 kts 199°
2026-05-07 18:47 24.96984 -80.52714 24591 ft 419 kts 199°
2026-05-07 18:48 24.94179 -80.53631 25008 ft 422 kts 200°
2026-05-07 18:48 24.91360 -80.54555 25426 ft 424 kts 200°
2026-05-07 18:48 24.88526 -80.55481 25841 ft 426 kts 200°
2026-05-07 18:48 24.85730 -80.56561 26240 ft 425 kts 208°
2026-05-07 18:49 24.83164 -80.58152 26636 ft 423 kts 218°
2026-05-07 18:49 24.80914 -80.60227 27042 ft 421 kts 229°
2026-05-07 18:49 24.79047 -80.62701 27421 ft 420 kts 238°
2026-05-07 18:49 24.77469 -80.65411 27821 ft 422 kts 240°
2026-05-07 18:50 24.75892 -80.68143 28212 ft 424 kts 240°
2026-05-07 18:50 24.74299 -80.70888 28613 ft 427 kts 240°
2026-05-07 18:50 24.72715 -80.73607 29000 ft 429 kts 240°
2026-05-07 18:50 24.71078 -80.76417 29370 ft 432 kts 240°
2026-05-07 18:51 24.69474 -80.79171 29728 ft 435 kts 240°
2026-05-07 18:51 24.67816 -80.82015 30102 ft 437 kts 240°
2026-05-07 18:51 24.66171 -80.84838 30420 ft 440 kts 240°
2026-05-07 18:51 24.64543 -80.87639 30726 ft 442 kts 240°
2026-05-07 18:52 24.62886 -80.90487 31031 ft 444 kts 240°
2026-05-07 18:52 24.61217 -80.93347 31354 ft 445 kts 240°
2026-05-07 18:52 24.59387 -80.96098 31671 ft 449 kts 231°
2026-05-07 18:52 24.57067 -80.98412 32108 ft 453 kts 219°
2026-05-07 18:53 24.54330 -81.00159 32534 ft 458 kts 207°
2026-05-07 18:53 24.51287 -81.01246 32948 ft 464 kts 195°
2026-05-07 18:53 24.48059 -81.01608 33360 ft 469 kts 183°
2026-05-07 18:53 24.44794 -81.01585 33768 ft 469 kts 183°
2026-05-07 18:54 24.41531 -81.01554 34169 ft 469 kts 183°
2026-05-07 18:54 24.38273 -81.01522 34541 ft 468 kts 183°
2026-05-07 18:54 24.35018 -81.01494 34899 ft 468 kts 183°
2026-05-07 18:54 24.31768 -81.01468 35027 ft 466 kts 183°
2026-05-07 18:55 24.28548 -81.01441 35059 ft 460 kts 183°
2026-05-07 18:55 24.22188 -81.01383 35060 ft 456 kts 183°
2026-05-07 18:56 24.15855 -81.01329 35059 ft 455 kts 183°
2026-05-07 18:56 24.09518 -81.01278 35056 ft 455 kts 183°
2026-05-07 18:57 24.03182 -81.01227 35053 ft 455 kts 183°
2026-05-07 18:57 23.96844 -81.01143 35050 ft 456 kts 182°
2026-05-07 18:58 23.90502 -81.00864 35052 ft 456 kts 181°
2026-05-07 18:58 23.84159 -81.00531 35050 ft 456 kts 181°
2026-05-07 18:59 23.77821 -81.00236 35037 ft 456 kts 181°
2026-05-07 18:59 23.71529 -80.99973 35034 ft 456 kts 181°
2026-05-07 19:00 23.65190 -80.99717 35034 ft 456 kts 181°
2026-05-07 19:00 23.58853 -80.99457 35033 ft 456 kts 181°
2026-05-07 19:01 23.52513 -80.99194 35035 ft 456 kts 181°
2026-05-07 19:01 23.46169 -80.98927 35027 ft 456 kts 181°
2026-05-07 19:02 23.39826 -80.98655 35027 ft 456 kts 181°
2026-05-07 19:02 23.33477 -80.98386 35026 ft 457 kts 181°
2026-05-07 19:03 23.27127 -80.98120 35027 ft 457 kts 181°
2026-05-07 19:03 23.20779 -80.97857 35024 ft 456 kts 181°
2026-05-07 19:04 23.14432 -80.97591 35019 ft 456 kts 180°
2026-05-07 19:04 23.08085 -80.97325 35013 ft 457 kts 180°
2026-05-07 19:05 23.01771 -80.97544 35015 ft 452 kts 193°
2026-05-07 19:05 22.95863 -80.99525 35017 ft 447 kts 204°
2026-05-07 19:06 22.90031 -81.01869 35016 ft 447 kts 204°
2026-05-07 19:06 22.81277 -81.05376 35008 ft 448 kts 203°
2026-05-07 19:07 22.75431 -81.07713 35003 ft 448 kts 203°
2026-05-07 19:07 22.69584 -81.10048 35001 ft 448 kts 203°
2026-05-07 19:08 22.63734 -81.12386 35005 ft 448 kts 203°
2026-05-07 19:08 22.57877 -81.14719 35006 ft 448 kts 203°
2026-05-07 19:09 22.52022 -81.17057 35001 ft 448 kts 203°
2026-05-07 19:09 22.46168 -81.19395 35007 ft 449 kts 203°
2026-05-07 19:10 22.40306 -81.21724 35005 ft 449 kts 203°
2026-05-07 19:10 22.34473 -81.24036 35010 ft 449 kts 203°
2026-05-07 19:11 22.28610 -81.26366 35008 ft 449 kts 203°
2026-05-07 19:11 22.22746 -81.28691 35006 ft 449 kts 203°
2026-05-07 19:12 22.16887 -81.31015 35020 ft 448 kts 203°
2026-05-07 19:12 22.11036 -81.33339 35022 ft 448 kts 203°
2026-05-07 19:13 22.05183 -81.35656 35025 ft 448 kts 203°
2026-05-07 19:13 21.99336 -81.37967 35023 ft 447 kts 203°
2026-05-07 19:14 21.93492 -81.40274 35022 ft 447 kts 203°
2026-05-07 19:14 21.87647 -81.42582 35016 ft 447 kts 202°
2026-05-07 19:15 21.81840 -81.44876 35015 ft 448 kts 202°
2026-05-07 19:15 21.75991 -81.47182 35016 ft 448 kts 202°
2026-05-07 19:16 21.70135 -81.49489 35017 ft 448 kts 202°
2026-05-07 19:16 21.64280 -81.51784 35018 ft 448 kts 202°
2026-05-07 19:17 21.58302 -81.53697 35022 ft 451 kts 192°
2026-05-07 19:17 21.52108 -81.54857 34975 ft 453 kts 192°
2026-05-07 19:18 21.48999 -81.55440 34737 ft 453 kts 192°
2026-05-07 19:18 21.45892 -81.56027 34513 ft 453 kts 192°
2026-05-07 19:18 21.42794 -81.56615 34287 ft 452 kts 192°
2026-05-07 19:18 21.39703 -81.57202 34061 ft 450 kts 192°
2026-05-07 19:19 21.36621 -81.57788 33807 ft 449 kts 192°
2026-05-07 19:19 21.33552 -81.58372 33550 ft 447 kts 192°
2026-05-07 19:19 21.30494 -81.58949 33292 ft 445 kts 192°
2026-05-07 19:19 21.27445 -81.59522 33033 ft 444 kts 192°
2026-05-07 19:20 21.24410 -81.60091 32788 ft 442 kts 192°
2026-05-07 19:20 21.21427 -81.60651 32554 ft 440 kts 192°
2026-05-07 19:20 21.18414 -81.61215 32295 ft 439 kts 192°
2026-05-07 19:20 21.15412 -81.61779 32050 ft 437 kts 192°
2026-05-07 19:21 21.12410 -81.62345 31806 ft 436 kts 192°
2026-05-07 19:21 21.09430 -81.62907 31568 ft 434 kts 192°
2026-05-07 19:21 21.06464 -81.63464 31329 ft 432 kts 192°
2026-05-07 19:21 21.03502 -81.64021 31094 ft 431 kts 192°
2026-05-07 19:22 21.00554 -81.64579 30860 ft 429 kts 192°
2026-05-07 19:22 20.97617 -81.65133 30627 ft 428 kts 192°
2026-05-07 19:22 20.94689 -81.65680 30399 ft 427 kts 191°
2026-05-07 19:22 20.91772 -81.66223 30171 ft 425 kts 191°
2026-05-07 19:23 20.88867 -81.66768 29918 ft 423 kts 191°
2026-05-07 19:23 20.85974 -81.67311 29647 ft 422 kts 191°
2026-05-07 19:23 20.83090 -81.67852 29386 ft 420 kts 191°
2026-05-07 19:23 20.80221 -81.68391 29123 ft 418 kts 191°
2026-05-07 19:24 20.77357 -81.68927 28860 ft 417 kts 191°
2026-05-07 19:24 20.74507 -81.69459 28603 ft 415 kts 191°
2026-05-07 19:24 20.71667 -81.69986 28351 ft 414 kts 191°
2026-05-07 19:24 20.68837 -81.70510 28095 ft 412 kts 191°
2026-05-07 19:25 20.66017 -81.71033 27840 ft 411 kts 190°
2026-05-07 19:25 20.63206 -81.71558 27594 ft 409 kts 190°
2026-05-07 19:25 20.60408 -81.72084 27344 ft 408 kts 190°
2026-05-07 19:25 20.57612 -81.72614 27101 ft 408 kts 190°
2026-05-07 19:26 20.54829 -81.73137 26858 ft 406 kts 190°
2026-05-07 19:26 20.52049 -81.73656 26613 ft 405 kts 189°
2026-05-07 19:26 20.49279 -81.74172 26376 ft 403 kts 189°
2026-05-07 19:26 20.46526 -81.74687 26120 ft 401 kts 189°
2026-05-07 19:27 20.43778 -81.75201 25685 ft 401 kts 189°
2026-05-07 19:27 20.41031 -81.75712 25251 ft 401 kts 189°
2026-05-07 19:27 20.39213 -81.76049 24973 ft 400 kts 188°
2026-05-07 19:27 20.35554 -81.76728 24439 ft 398 kts 189°
2026-05-07 19:28 20.33752 -81.77064 24176 ft 397 kts 188°
2026-05-07 19:28 20.31039 -81.77572 23785 ft 395 kts 188°
2026-05-07 19:28 20.28339 -81.78077 23351 ft 393 kts 188°
2026-05-07 19:28 20.25642 -81.78577 22836 ft 393 kts 188°
2026-05-07 19:29 20.22954 -81.79071 22316 ft 389 kts 187°
2026-05-07 19:29 20.20316 -81.79558 21823 ft 381 kts 187°
2026-05-07 19:29 20.17734 -81.80039 21358 ft 372 kts 187°
2026-05-07 19:29 20.15207 -81.80509 20901 ft 365 kts 187°
2026-05-07 19:30 20.12709 -81.80973 20447 ft 365 kts 187°
2026-05-07 19:30 20.10197 -81.81438 19977 ft 367 kts 187°
2026-05-07 19:30 20.07674 -81.81904 19520 ft 369 kts 187°
2026-05-07 19:30 20.05141 -81.82372 19067 ft 371 kts 187°
2026-05-07 19:31 20.02593 -81.82824 18617 ft 371 kts 184°
2026-05-07 19:31 20.00027 -81.82842 18154 ft 368 kts 170°
2026-05-07 19:31 19.97541 -81.82261 17647 ft 365 kts 158°
2026-05-07 19:31 19.95190 -81.81264 17146 ft 364 kts 155°
2026-05-07 19:32 19.92872 -81.80264 16685 ft 364 kts 155°
2026-05-07 19:32 19.90535 -81.79265 16409 ft 357 kts 155°
2026-05-07 19:32 19.88277 -81.78306 16149 ft 344 kts 156°
2026-05-07 19:32 19.86072 -81.77367 15665 ft 340 kts 155°
2026-05-07 19:33 19.83871 -81.76426 15270 ft 341 kts 156°
2026-05-07 19:33 19.81678 -81.75487 15044 ft 336 kts 155°
2026-05-07 19:33 19.79536 -81.74571 14923 ft 327 kts 156°
2026-05-07 19:33 19.77458 -81.73684 14628 ft 319 kts 156°
2026-05-07 19:34 19.75412 -81.72809 14180 ft 316 kts 156°
2026-05-07 19:34 19.73384 -81.71942 13722 ft 313 kts 157°
2026-05-07 19:34 19.71370 -81.71082 13217 ft 311 kts 157°
2026-05-07 19:34 19.69373 -81.70228 12707 ft 309 kts 158°
2026-05-07 19:35 19.67379 -81.69376 12385 ft 308 kts 158°
2026-05-07 19:35 19.65399 -81.68529 12094 ft 305 kts 158°
2026-05-07 19:35 19.63439 -81.67688 11618 ft 303 kts 157°
2026-05-07 19:35 19.61495 -81.66854 11238 ft 300 kts 158°
2026-05-07 19:36 19.59549 -81.66019 10886 ft 302 kts 158°
2026-05-07 19:36 19.57601 -81.65188 10519 ft 301 kts 158°
2026-05-07 19:36 19.55653 -81.64358 10149 ft 303 kts 158°
2026-05-07 19:36 19.53724 -81.63536 9976 ft 292 kts 158°
2026-05-07 19:37 19.51865 -81.62745 9697 ft 282 kts 158°
2026-05-07 19:37 19.50074 -81.61983 9276 ft 277 kts 158°
2026-05-07 19:37 19.48270 -81.61215 8690 ft 279 kts 157°
2026-05-07 19:37 19.46488 -81.60458 8290 ft 273 kts 156°
2026-05-07 19:38 19.44766 -81.59726 8003 ft 262 kts 157°
2026-05-07 19:38 19.43088 -81.59013 7581 ft 258 kts 156°
2026-05-07 19:38 19.41456 -81.58320 7337 ft 247 kts 156°
2026-05-07 19:38 19.39873 -81.57648 6963 ft 243 kts 156°
2026-05-07 19:39 19.38305 -81.56980 6582 ft 241 kts 156°
2026-05-07 19:39 19.36797 -81.56336 6462 ft 227 kts 155°
2026-05-07 19:39 19.35357 -81.55722 6166 ft 222 kts 156°
2026-05-07 19:39 19.33910 -81.55259 5891 ft 217 kts 162°
2026-05-07 19:40 19.32407 -81.54858 5201 ft 230 kts 163°
2026-05-07 19:40 19.30850 -81.54444 4762 ft 230 kts 163°
2026-05-07 19:40 19.29307 -81.54036 4381 ft 227 kts 163°
2026-05-07 19:40 19.27790 -81.53636 4015 ft 222 kts 164°
2026-05-07 19:41 19.26362 -81.53190 3737 ft 206 kts 151°
2026-05-07 19:41 19.25470 -81.52115 3264 ft 196 kts 106°
2026-05-07 19:41 19.25491 -81.50741 2975 ft 182 kts 81°
2026-05-07 19:41 19.25792 -81.49484 2701 ft 170 kts 76°
2026-05-07 19:42 19.26117 -81.48309 2435 ft 164 kts 77°
2026-05-07 19:42 19.26425 -81.47191 2170 ft 158 kts 76°
2026-05-07 19:42 19.26725 -81.46070 1895 ft 154 kts 77°
2026-05-07 19:42 19.27002 -81.45004 1635 ft 153 kts 75°
2026-05-07 19:43 19.27281 -81.43912 1378 ft 155 kts 76°
2026-05-07 19:43 19.27548 -81.42848 1181 ft 143 kts 76°
2026-05-07 19:43 19.27790 -81.41873 995 ft 132 kts 78°
2026-05-07 19:43 19.28016 -81.40953 843 ft 127 kts 79°
2026-05-07 19:44 19.28231 -81.40069 668 ft 121 kts 77°
2026-05-07 19:44 19.28444 -81.39180 452 ft 128 kts 79°
2026-05-07 19:44 19.28696 -81.38261 338 ft 129 kts 80°
2026-05-07 19:44 19.28911 -81.37334 144 ft 130 kts 81°
2026-05-07 19:45 19.29127 -81.36420 19 ft 120 kts 78°
2026-05-07 19:45 19.29288 -81.35732 16 ft 74 kts 76°
2026-05-07 19:45 19.29390 -81.35305 15 ft 47 kts 76°
2026-05-07 19:45 19.29445 -81.35072 16 ft 31 kts 76°